Home > Weather > Cheongju > Past weeks

Flag for South Korea Past Weather in Cheongju, South Korea — Yesterday and Last 2 Weeks

Now
77 °F

Passing clouds.


Feels Like: 79 °F
Forecast: 55 / 76 °F
Wind: 5 mph from West

Location: Chongju Ab

Current Time: May 25, 2016 at 6:16:33 PM

Latest Report: May 25, 2016 at 5:00 PM


Visibility: 5 mi

Pressure: 29.77 "Hg

Humidity: 54%

Dew Point: 59 °F

Location of CheongjuLocation

Past Weather in Cheongju — Graph

°F

Cheongju Temperature Yesterday

Maximum temperature yesterday: 70 °F (at 3:00 AM)
Minimum temperature yesterday: 61 °F (at 12:00 PM)
Average temperature yesterday: 65 °F

High & Low Weather Summary for the Past Weeks

 TemperatureHumidityPressure
High88 °F (May 19, 4:00 PM)100% (May 10, 7:47 PM)30.27 "Hg (May 10, 7:47 PM)
Low46 °F (May 17, 3:00 AM)16% (May 22, 3:00 PM)29.24 "Hg (May 14, 3:00 AM)
Average66 °F65%29.94 "Hg
* Reported May 10 5:00 PM — May 25 5:00 PM, Cheongju, Weather by CustomWeather, © 2016

Note: Actual official high and low records may vary slightly from our data, if they occured in-between our weather recording intervals... More about our weather records

Advertising

Cheongju Weather History for the Previous 24 Hours

Scroll right to see more
 ConditionsComfort  
Time TempWeatherWind HumidityBarometerVisibility
5:00 PM
Wed, May 25
77 °FPassing clouds.5 mph54%29.77 "Hg5 mi
4:00 PM77 °FPassing clouds.2 mph54%29.77 "Hg5 mi
3:00 PM75 °FPassing clouds.6 mph57%29.80 "Hg4 mi
2:00 PM72 °FHaze.6 mph65%29.83 "Hg3 mi
1:00 PM72 °FHaze.2 mph65%29.86 "Hg3 mi
12:00 PM68 °FFog.6 mph73%29.86 "Hg3 mi
11:00 AM66 °FFog.3 mph73%29.86 "Hg3 mi
10:00 AM63 °FFog.2 mph83%29.86 "Hg2 mi
9:00 AM59 °FFog.2 mph94%29.86 "Hg2 mi
8:00 AM57 °FFog.3 mph100%29.86 "Hg1 mi
7:45 AM57 °FFog.3 mph100%29.86 "Hg1 mi
7:00 AM57 °FFog.3 mph94%29.86 "Hg1 mi
6:50 AM57 °FFog.3 mph94%29.86 "Hg1 mi
6:00 AM55 °FFog.3 mph100%29.83 "Hg0 mi
5:00 AM55 °FFog.3 mph100%29.83 "Hg1 mi
4:00 AM55 °FFog.1 mph100%29.83 "Hg1 mi
3:00 AM59 °FFog.3 mph94%29.80 "Hg2 mi
2:00 AM57 °FFog.1 mph94%29.80 "Hg3 mi
1:05 AM59 °FPassing clouds.5 mph94%29.80 "Hg5 mi
12:00 AM61 °FPassing clouds.6 mph88%29.80 "Hg5 mi
11:00 PM
Tue, May 24
61 °FPassing clouds.7 mph88%29.77 "Hg6 mi
10:00 PM61 °FPartly cloudy.6 mph88%29.77 "HgN/A
9:00 PM63 °FPartly cloudy.6 mph88%29.74 "HgN/A
8:00 PM64 °FPartly cloudy.7 mph83%29.74 "HgN/A
7:00 PM66 °FPartly sunny.6 mph78%29.71 "HgN/A
6:00 PM68 °FPartly sunny.6 mph73%29.71 "HgN/A
Weather by CustomWeather, © 2016

See weather overviewHow to use our weather pages